Wetterdaten: Jahr 2008
Datum Temp Feuchte Luftdruck Regen Wind Richtung Sonnenschein UV Solar Windben
08.02.2008 7,0 C 56 % 1033,0 hPa 0,0 l/m 0,0 km/h N 0,00 h 0,0 UV-I 0 W/m 0,0 km/h
09.02.2008 4,3 C 61 % 1032,8 hPa 1,5 l/m 1,3 km/h N 0,00 h 0,0 UV-I 0 W/m 0,0 km/h
10.02.2008 3,8 C 70 % 1033,5 hPa 0,0 l/m 0,3 km/h N 0,00 h 0,0 UV-I 0 W/m 0,0 km/h
11.02.2008 3,4 C 72 % 1033,0 hPa 0,0 l/m 0,5 km/h N 0,00 h 0,0 UV-I 0 W/m 0,0 km/h
12.02.2008 2,2 C 77 % 1032,0 hPa 0,0 l/m 0,3 km/h N 0,00 h 0,0 UV-I 0 W/m 0,0 km/h
13.02.2008 -0,5 C 78 % 1032,5 hPa 0,0 l/m 0,9 km/h N 0,00 h 0,0 UV-I 0 W/m 0,0 km/h
14.02.2008 0,4 C 83 % 1032,8 hPa 0,0 l/m 0,2 km/h N 0,00 h 0,0 UV-I 0 W/m 0,0 km/h
15.02.2008 -1,6 C 61 % 1036,5 hPa 0,3 l/m 0,3 km/h N 0,00 h 0,0 UV-I 0 W/m 0,0 km/h
16.02.2008 -4,7 C 64 % 1040,8 hPa 0,0 l/m 0,6 km/h N 0,00 h 0,0 UV-I 0 W/m 0,0 km/h
17.02.2008 0,1 C 49 % 1034,5 hPa 0,0 l/m 0,5 km/h N 0,00 h 0,0 UV-I 0 W/m 0,0 km/h
18.02.2008 -1,3 C 81 % 1028,8 hPa 0,0 l/m 0,1 km/h N 0,00 h 0,0 UV-I 0 W/m 0,0 km/h
19.02.2008 0,2 C 81 % 1022,5 hPa 0,0 l/m 0,0 km/h N 0,00 h 0,0 UV-I 0 W/m 0,0 km/h
20.02.2008 2,2 C 80 % 1016,8 hPa 0,9 l/m 0,0 km/h N 0,00 h 0,0 UV-I 0 W/m 0,0 km/h
21.02.2008 5,9 C 77 % 1018,0 hPa 1,2 l/m 2,2 km/h N 0,00 h 0,0 UV-I 0 W/m 0,0 km/h
22.02.2008 7,6 C 80 % 1017,8 hPa 3,5 l/m 8,9 km/h N 0,00 h 0,0 UV-I 0 W/m 0,0 km/h
23.02.2008 6,0 C 73 % 1022,8 hPa 0,3 l/m 3,3 km/h N 0,00 h 0,0 UV-I 0 W/m 0,0 km/h
24.02.2008 6,2 C 79 % 1016,5 hPa 0,0 l/m 0,6 km/h N 0,00 h 0,0 UV-I 0 W/m 0,0 km/h
25.02.2008 4,5 C 75 % 1017,0 hPa 6,2 l/m 3,1 km/h N 0,00 h 0,0 UV-I 0 W/m 0,0 km/h
26.02.2008 8,5 C 76 % 1005,3 hPa 10,0 l/m 4,4 km/h N 0,00 h 0,0 UV-I 0 W/m 0,0 km/h
27.02.2008 4,7 C 71 % 1013,3 hPa 0,0 l/m 4,8 km/h N 0,00 h 0,0 UV-I 0 W/m 0,0 km/h
28.02.2008 3,8 C 72 % 1017,5 hPa 0,0 l/m 0,6 km/h N 0,00 h 0,0 UV-I 0 W/m 0,0 km/h
29.02.2008 5,2 C 79 % 1005,8 hPa 7,4 l/m 1,8 km/h N 0,00 h 0,0 UV-I 0 W/m 0,0 km/h
01.03.2008 5,4 C 74 % 997,3 hPa 21,2 l/m 16,8 km/h N 0,00 h 0,0 UV-I 0 W/m 0,0 km/h
02.03.2008 7,0 C 68 % 1002,0 hPa 8,3 l/m 15,4 km/h N 0,00 h 0,0 UV-I 0 W/m 0,0 km/h
03.03.2008 3,5 C 68 % 1005,5 hPa 2,1 l/m 3,8 km/h N 0,00 h 0,0 UV-I 0 W/m 0,0 km/h
04.03.2008 0,7 C 70 % 1014,0 hPa 0,0 l/m 3,2 km/h N 0,00 h 0,0 UV-I 0 W/m 0,0 km/h
05.03.2008 0,0 C 61 % 1024,5 hPa 0,3 l/m 1,7 km/h N 0,00 h 0,0 UV-I 0 W/m 0,0 km/h
06.03.2008 3,4 C 77 % 1017,5 hPa 3,2 l/m 2,0 km/h N 0,00 h 0,0 UV-I 0 W/m 0,0 km/h
07.03.2008 5,3 C 82 % 1011,3 hPa 0,3 l/m 0,7 km/h N 0,00 h 0,0 UV-I 0 W/m 0,0 km/h
08.03.2008 4,1 C 71 % 1007,0 hPa 0,3 l/m 1,1 km/h N 0,00 h 0,0 UV-I 0 W/m 0,0 km/h
09.03.2008 6,1 C 67 % 999,3 hPa 0,0 l/m 5,9 km/h N 0,00 h 0,0 UV-I 0 W/m 0,0 km/h
10.03.2008 6,4 C 68 % 987,5 hPa 0,0 l/m 12,3 km/h N 0,00 h 0,0 UV-I 0 W/m 0,0 km/h
11.03.2008 5,4 C 74 % 987,5 hPa 11,2 l/m 5,2 km/h N 0,00 h 0,0 UV-I 0 W/m 0,0 km/h
12.03.2008 4,5 C 74 % 994,8 hPa 15,0 l/m 7,7 km/h N 0,00 h 0,0 UV-I 0 W/m 0,0 km/h
13.03.2008 5,2 C 68 % 1007,8 hPa 2,4 l/m 13,7 km/h N 0,00 h 0,0 UV-I 0 W/m 0,0 km/h
14.03.2008 4,6 C 70 % 1007,8 hPa 3,5 l/m 3,1 km/h N 0,00 h 0,0 UV-I 0 W/m 0,0 km/h
15.03.2008 5,9 C 71 % 1006,0 hPa 0,0 l/m 1,6 km/h N 0,00 h 0,0 UV-I 0 W/m 0,0 km/h
16.03.2008 6,3 C 83 % 998,0 hPa 20,1 l/m 1,2 km/h N 0,00 h 0,0 UV-I 0 W/m 0,0 km/h
17.03.2008 1,6 C 76 % 1007,0 hPa 1,2 l/m 4,2 km/h N 0,00 h 0,0 UV-I 0 W/m 0,0 km/h
18.03.2008 0,9 C 81 % 1008,3 hPa 2,4 l/m 7,0 km/h N 0,00 h 0,0 UV-I 0 W/m 0,0 km/h
19.03.2008 1,4 C 77 % 1010,3 hPa 9,7 l/m 2,3 km/h N 0,00 h 0,0 UV-I 0 W/m 0,0 km/h
20.03.2008 1,4 C 80 % 1001,5 hPa 12,7 l/m 4,5 km/h N 0,00 h 0,0 UV-I 0 W/m 0,0 km/h
21.03.2008 0,8 C 83 % 976,5 hPa 18,9 l/m 5,9 km/h N 0,00 h 0,0 UV-I 0 W/m 0,0 km/h
22.03.2008 -0,4 C 83 % 988,8 hPa 2,1 l/m 2,3 km/h N 0,00 h 0,0 UV-I 0 W/m 0,0 km/h
23.03.2008 -3,8 C 69 % 995,8 hPa 0,9 l/m 0,9 km/h N 0,00 h 0,0 UV-I 0 W/m 0,0 km/h
24.03.2008 -1,7 C 78 % 990,8 hPa 0,6 l/m 0,5 km/h N 0,00 h 0,0 UV-I 0 W/m 0,0 km/h
25.03.2008 -1,3 C 80 % 997,0 hPa 1,5 l/m 16,6 km/h N 0,00 h 0,0 UV-I 0 W/m 0,0 km/h
26.03.2008 -0,3 C 74 % 997,8 hPa 5,6 l/m 1,7 km/h N 0,00 h 0,0 UV-I 0 W/m 0,0 km/h
27.03.2008 3,2 C 76 % 1000,3 hPa 0,3 l/m 2,8 km/h N 0,00 h 0,0 UV-I 0 W/m 0,0 km/h
28.03.2008 6,5 C 63 % 1004,0 hPa 2,4 l/m 23,9 km/h N 0,00 h 0,0 UV-I 0 W/m 0,0 km/h
29.03.2008 4,8 C 68 % 1013,3 hPa 3,0 l/m 2,8 km/h N 0,00 h 0,0 UV-I 0 W/m 0,0 km/h
30.03.2008 10,2 C 56 % 1007,3 hPa 0,0 l/m 5,8 km/h N 0,00 h 0,0 UV-I 0 W/m 0,0 km/h
31.03.2008 7,4 C 72 % 1016,8 hPa 0,0 l/m 0,6 km/h N 0,00 h 0,0 UV-I 0 W/m 0,0 km/h
01.04.2008 7,5 C 72 % 1018,0 hPa 3,2 l/m 4,1 km/h N 0,00 h 0,0 UV-I 0 W/m 0,0 km/h
02.04.2008 6,1 C 75 % 1016,3 hPa 13,9 l/m 5,8 km/h N 0,00 h 0,0 UV-I 0 W/m 0,0 km/h
03.04.2008 4,2 C 81 % 1022,5 hPa 7,4 l/m 1,7 km/h N 0,00 h 0,0 UV-I 0 W/m 0,0 km/h
04.04.2008 4,8 C 81 % 1022,3 hPa 0,3 l/m 3,2 km/h N 0,00 h 0,0 UV-I 0 W/m 0,0 km/h
05.04.2008 4,1 C 84 % 1006,0 hPa 14,5 l/m 0,3 km/h N 0,00 h 0,0 UV-I 0 W/m 0,0 km/h
06.04.2008 2,4 C 75 % 999,5 hPa 2,1 l/m 0,2 km/h N 0,00 h 0,0 UV-I 0 W/m 0,0 km/h
07.04.2008 0,7 C 83 % 1001,3 hPa 5,6 l/m 0,0 km/h N 0,00 h 0,0 UV-I 0 W/m 0,0 km/h
08.04.2008 1,5 C 76 % 1003,8 hPa 3,8 l/m 0,9 km/h N 0,00 h 0,0 UV-I 0 W/m 0,0 km/h
09.04.2008 4,4 C 68 % 997,8 hPa 0,0 l/m 0,1 km/h N 0,00 h 0,0 UV-I 0 W/m 0,0 km/h
10.04.2008 3,7 C 80 % 998,5 hPa 0,0 l/m 0,0 km/h N 0,00 h 0,0 UV-I 0 W/m 0,0 km/h
11.04.2008 5,1 C 82 % 998,5 hPa 2,1 l/m 0,0 km/h N 0,00 h 0,0 UV-I 0 W/m 0,0 km/h
12.04.2008 7,4 C 71 % 1007,5 hPa 1,2 l/m 1,7 km/h N 0,00 h 0,0 UV-I 0 W/m 0,0 km/h
13.04.2008 6,3 C 78 % 1010,5 hPa 9,7 l/m 0,8 km/h N 0,00 h 0,0 UV-I 0 W/m 0,0 km/h
14.04.2008 5,6 C 83 % 1010,5 hPa 12,4 l/m 0,6 km/h N 0,00 h 0,0 UV-I 0 W/m 0,0 km/h
15.04.2008 4,1 C 77 % 1017,8 hPa 0,3 l/m 5,3 km/h N 0,00 h 0,0 UV-I 0 W/m 0,0 km/h
16.04.2008 1,8 C 75 % 1017,5 hPa 0,0 l/m 0,6 km/h N 0,00 h 0,0 UV-I 0 W/m 0,0 km/h
17.04.2008 3,5 C 68 % 1007,3 hPa 0,0 l/m 0,0 km/h N 0,00 h 0,0 UV-I 0 W/m 0,0 km/h
18.04.2008 5,8 C 70 % 1000,8 hPa 0,0 l/m 1,5 km/h N 0,00 h 0,0 UV-I 0 W/m 0,0 km/h
19.04.2008 6,9 C 69 % 1001,8 hPa 0,0 l/m 1,8 km/h N 0,00 h 0,0 UV-I 0 W/m 0,0 km/h
20.04.2008 8,0 C 67 % 1007,5 hPa 0,0 l/m 3,7 km/h N 0,00 h 0,0 UV-I 0 W/m 0,0 km/h
21.04.2008 11,1 C 60 % 1004,0 hPa 0,0 l/m 3,7 km/h N 0,00 h 0,0 UV-I 0 W/m 0,0 km/h
22.04.2008 9,3 C 64 % 1009,3 hPa 0,0 l/m 1,3 km/h N 0,00 h 0,0 UV-I 0 W/m 0,0 km/h
23.04.2008 9,4 C 61 % 1018,0 hPa 0,0 l/m 0,6 km/h N 0,00 h 0,0 UV-I 0 W/m 0,0 km/h
24.04.2008 9,8 C 69 % 1020,3 hPa 0,0 l/m 0,1 km/h N 0,00 h 0,0 UV-I 0 W/m 0,0 km/h
25.04.2008 8,1 C 79 % 1024,8 hPa 11,2 l/m 1,2 km/h N 0,00 h 0,0 UV-I 0 W/m 0,0 km/h
26.04.2008 10,1 C 70 % 1026,0 hPa 0,3 l/m 0,4 km/h N 0,00 h 0,0 UV-I 0 W/m 0,0 km/h
27.04.2008 12,6 C 58 % 1018,0 hPa 0,0 l/m 2,9 km/h N 0,00 h 0,0 UV-I 0 W/m 0,0 km/h
28.04.2008 12,0 C 71 % 1005,5 hPa 11,5 l/m 9,6 km/h N 0,00 h 0,0 UV-I 0 W/m 0,0 km/h
29.04.2008 8,9 C 73 % 1003,0 hPa 2,7 l/m 0,5 km/h N 0,00 h 0,0 UV-I 0 W/m 0,0 km/h
30.04.2008 5,8 C 74 % 1001,8 hPa 0,0 l/m 0,0 km/h N 0,00 h 0,0 UV-I 0 W/m 0,0 km/h
01.05.2008 9,4 C 72 % 1013,4 hPa 0,4 l/m 4,2 km/h SW 7,33 h 2,3 UV-I 355 W/m 10,5 km/h
02.05.2008 8,8 C 85 % 1023,1 hPa 5,6 l/m 4,3 km/h W-SW 5,67 h 2,5 UV-I 317 W/m 6,8 km/h
03.05.2008 10,1 C 67 % 1027,6 hPa 0,2 l/m 0,7 km/h O 11,00 h 2,9 UV-I 409 W/m 2,4 km/h
04.05.2008 12,3 C 58 % 1025,9 hPa 0,0 l/m 1,9 km/h O-NO 11,33 h 3,4 UV-I 478 W/m 7,2 km/h
05.05.2008 12,4 C 70 % 1027,4 hPa 0,0 l/m 0,9 km/h O 10,33 h 3,1 UV-I 449 W/m 3,6 km/h
06.05.2008 14,9 C 62 % 1025,6 hPa 0,0 l/m 2,1 km/h O-NO 10,42 h 3,5 UV-I 413 W/m 6,8 km/h
07.05.2008 15,5 C 58 % 1021,8 hPa 0,0 l/m 1,6 km/h O 11,83 h 3,9 UV-I 487 W/m 4,4 km/h
08.05.2008 15,3 C 60 % 1019,1 hPa 0,0 l/m 0,0 km/h N 12,48 h 3,6 UV-I 489 W/m 0,0 km/h
09.05.2008 17,0 C 52 % 1017,7 hPa 0,0 l/m 1,7 km/h O 12,50 h 3,6 UV-I 493 W/m 6,8 km/h
10.05.2008 16,8 C 48 % 1019,8 hPa 0,0 l/m 2,6 km/h O 12,67 h 3,5 UV-I 501 W/m 7,3 km/h
11.05.2008 15,8 C 54 % 1020,0 hPa 0,0 l/m 2,2 km/h O 12,67 h 3,5 UV-I 500 W/m 5,2 km/h
12.05.2008 16,9 C 56 % 1018,3 hPa 0,0 l/m 0,9 km/h O 11,92 h 3,3 UV-I 501 W/m 2,8 km/h
13.05.2008 16,6 C 61 % 1016,3 hPa 0,0 l/m 0,6 km/h O 9,08 h 2,7 UV-I 391 W/m 0,8 km/h
14.05.2008 16,3 C 61 % 1013,3 hPa 0,0 l/m 1,2 km/h O 12,83 h 3,3 UV-I 497 W/m 2,8 km/h
15.05.2008 15,1 C 80 % 1008,5 hPa 1,1 l/m 0,7 km/h O 4,08 h 2,5 UV-I 253 W/m 2,4 km/h
16.05.2008 13,7 C 89 % 1006,5 hPa 1,0 l/m 0,4 km/h NW 3,25 h 1,5 UV-I 195 W/m 2,8 km/h
17.05.2008 11,7 C 93 % 1005,5 hPa 2,3 l/m 0,7 km/h O 0,58 h 1,6 UV-I 151 W/m 4,0 km/h
18.05.2008 7,7 C 85 % 1011,0 hPa 0,0 l/m 0,0 km/h N-NW 2,50 h 1,5 UV-I 189 W/m 0,8 km/h
19.05.2008 9,5 C 69 % 1014,8 hPa 0,0 l/m 0,1 km/h N-NW 3,58 h 2,0 UV-I 270 W/m 1,6 km/h
20.05.2008 10,0 C 62 % 1017,7 hPa 0,0 l/m 0,2 km/h NW 7,67 h 2,9 UV-I 393 W/m 1,6 km/h
21.05.2008 11,5 C 62 % 1017,6 hPa 0,0 l/m 0,1 km/h O 7,58 h 2,5 UV-I 346 W/m 1,2 km/h
22.05.2008 12,9 C 58 % 1016,8 hPa 0,0 l/m 0,3 km/h O 6,58 h 2,8 UV-I 371 W/m 1,2 km/h
23.05.2008 13,3 C 68 % 1014,9 hPa 0,0 l/m 0,6 km/h O 3,50 h 2,1 UV-I 259 W/m 1,6 km/h
24.05.2008 15,5 C 61 % 1013,0 hPa 0,0 l/m 0,6 km/h O 9,42 h 3,1 UV-I 411 W/m 2,8 km/h
25.05.2008 15,1 C 78 % 1014,1 hPa 0,1 l/m 0,3 km/h O 2,92 h 1,9 UV-I 209 W/m 0,8 km/h
26.05.2008 16,0 C 85 % 1011,8 hPa 0,0 l/m 0,5 km/h O-NO 0,42 h 1,8 UV-I 162 W/m 2,0 km/h
27.05.2008 15,6 C 81 % 1013,5 hPa 0,0 l/m 1,2 km/h O 3,33 h 2,1 UV-I 212 W/m 5,2 km/h
28.05.2008 20,5 C 75 % 1012,3 hPa 0,0 l/m 1,3 km/h O 9,75 h 3,0 UV-I 350 W/m 4,0 km/h
29.05.2008 21,4 C 72 % 1009,8 hPa 0,0 l/m 2,3 km/h O 8,50 h 2,6 UV-I 352 W/m 8,0 km/h
30.05.2008 20,2 C 80 % 1009,2 hPa 3,2 l/m 1,6 km/h NW 8,83 h 2,8 UV-I 367 W/m 7,7 km/h
31.05.2008 17,0 C 92 % 1013,3 hPa 0,0 l/m 0,3 km/h NW 0,33 h 1,7 UV-I 132 W/m 2,0 km/h
01.06.2008 18,9 C 77 % 1014,8 hPa 0,0 l/m 0,4 km/h O 6,75 h 3,2 UV-I 370 W/m 2,0 km/h
02.06.2008 22,7 C 69 % 1010,9 hPa 0,0 l/m 0,5 km/h O 10,67 h 3,4 UV-I 442 W/m 2,0 km/h
03.06.2008 18,9 C 83 % 1011,3 hPa 0,4 l/m 1,0 km/h NW 4,33 h 2,4 UV-I 260 W/m 4,8 km/h
04.06.2008 16,8 C 94 % 1014,1 hPa 5,0 l/m 0,5 km/h NW 0,00 h 1,3 UV-I 124 W/m 2,8 km/h
05.06.2008 18,0 C 65 % 1013,8 hPa 0,0 l/m 0,2 km/h O 10,08 h 3,4 UV-I 423 W/m 1,2 km/h
06.06.2008 17,5 C 62 % 1013,0 hPa 0,0 l/m 0,2 km/h O 9,58 h 3,4 UV-I 427 W/m 0,4 km/h
07.06.2008 18,8 C 69 % 1014,8 hPa 0,0 l/m 3,4 km/h N-NO 8,58 h 3,0 UV-I 408 W/m 9,3 km/h
08.06.2008 18,6 C 63 % 1019,2 hPa 0,0 l/m 2,3 km/h N-NO 11,67 h 3,7 UV-I 476 W/m 6,8 km/h
09.06.2008 20,2 C 54 % 1021,0 hPa 0,0 l/m 5,7 km/h N-NO 12,83 h 3,9 UV-I 495 W/m 10,1 km/h
10.06.2008 19,6 C 64 % 1017,9 hPa 0,0 l/m 7,6 km/h N-NW 11,17 h 3,8 UV-I 461 W/m 16,5 km/h
11.06.2008 13,4 C 70 % 1016,3 hPa 0,0 l/m 6,8 km/h N-NW 3,52 h 2,5 UV-I 251 W/m 16,1 km/h
12.06.2008 10,6 C 85 % 1011,6 hPa 11,0 l/m 3,6 km/h NW 1,50 h 2,2 UV-I 185 W/m 10,5 km/h
13.06.2008 8,9 C 90 % 1014,0 hPa 5,4 l/m 4,1 km/h N-NW 4,08 h 2,7 UV-I 285 W/m 10,1 km/h
14.06.2008 9,1 C 89 % 1013,9 hPa 0,4 l/m 2,5 km/h S 3,67 h 2,3 UV-I 256 W/m 6,4 km/h
15.06.2008 10,9 C 86 % 1009,5 hPa 2,0 l/m 6,5 km/h S 6,40 h 2,5 UV-I 341 W/m 11,6 km/h
16.06.2008 12,0 C 72 % 1010,4 hPa 0,0 l/m 2,7 km/h N-NW 8,83 h 3,2 UV-I 425 W/m 7,2 km/h
17.06.2008 13,5 C 72 % 1013,5 hPa 0,0 l/m 0,7 km/h S-SO 8,35 h 2,8 UV-I 366 W/m 1,6 km/h
18.06.2008 16,3 C 68 % 1014,9 hPa 0,0 l/m 1,6 km/h S 11,10 h 3,3 UV-I 429 W/m 4,0 km/h
19.06.2008 15,8 C 78 % 1012,1 hPa 8,4 l/m 4,9 km/h S 3,48 h 2,9 UV-I 267 W/m 9,6 km/h
20.06.2008 15,3 C 67 % 1018,3 hPa 0,2 l/m 6,6 km/h S 7,08 h 3,1 UV-I 345 W/m 15,3 km/h
21.06.2008 16,6 C 73 % 1019,9 hPa 0,4 l/m 4,3 km/h S 6,68 h 4,0 UV-I 385 W/m 8,8 km/h
22.06.2008 20,3 C 81 % 1012,8 hPa 7,6 l/m 9,7 km/h S 7,25 h 3,5 UV-I 367 W/m 18,9 km/h
23.06.2008 15,7 C 66 % 1018,0 hPa 0,0 l/m 7,7 km/h S 11,50 h 4,0 UV-I 480 W/m 14,9 km/h
24.06.2008 16,5 C 62 % 1018,1 hPa 0,0 l/m 4,1 km/h N-NO 13,00 h 4,2 UV-I 497 W/m 10,4 km/h
25.06.2008 19,5 C 69 % 1013,7 hPa 0,8 l/m 7,1 km/h S 4,00 h 2,6 UV-I 259 W/m 16,5 km/h
26.06.2008 17,5 C 63 % 1018,4 hPa 0,0 l/m 3,8 km/h S 12,58 h 4,3 UV-I 573 W/m 9,7 km/h
27.06.2008 15,8 C 64 % 1016,7 hPa 0,8 l/m 6,8 km/h S 5,18 h 2,9 UV-I 320 W/m 14,9 km/h
28.06.2008 16,1 C 85 % 1017,3 hPa 1,6 l/m 4,7 km/h S 1,83 h 1,5 UV-I 149 W/m 6,0 km/h
29.06.2008 18,0 C 68 % 1016,7 hPa 0,0 l/m 5,2 km/h S 9,82 h 4,0 UV-I 435 W/m 16,1 km/h
30.06.2008 17,0 C 65 % 1020,2 hPa 0,0 l/m 2,5 km/h NW 10,00 h 3,8 UV-I 443 W/m 5,3 km/h
01.07.2008 21,0 C 55 % 1016,0 hPa 0,0 l/m 2,2 km/h SO 12,92 h 4,3 UV-I 483 W/m 6,4 km/h
02.07.2008 24,2 C 56 % 1009,5 hPa 0,0 l/m 3,9 km/h SO 11,52 h 3,9 UV-I 453 W/m 8,4 km/h
03.07.2008 18,4 C 84 % 1009,3 hPa 8,4 l/m 3,2 km/h NW 5,42 h 2,6 UV-I 271 W/m 9,7 km/h
04.07.2008 14,8 C 86 % 1014,9 hPa 2,2 l/m 4,7 km/h NW 5,00 h 2,7 UV-I 319 W/m 13,7 km/h
05.07.2008 17,0 C 74 % 1013,9 hPa 0,0 l/m 1,3 km/h NW 11,58 h 3,8 UV-I 462 W/m 2,8 km/h
06.07.2008 18,1 C 71 % 1006,6 hPa 0,0 l/m 4,4 km/h S-SW 5,08 h 2,3 UV-I 281 W/m 9,7 km/h
07.07.2008 15,7 C 71 % 1004,5 hPa 1,0 l/m 13,5 km/h S 4,33 h 2,6 UV-I 280 W/m 25,0 km/h
08.07.2008 13,3 C 81 % 1009,2 hPa 9,2 l/m 7,8 km/h S 2,58 h 2,2 UV-I 228 W/m 18,1 km/h
09.07.2008 14,4 C 81 % 1014,2 hPa 4,4 l/m 9,1 km/h S 1,17 h 2,1 UV-I 212 W/m 13,3 km/h
10.07.2008 18,5 C 85 % 1010,2 hPa 5,4 l/m 3,9 km/h S 3,08 h 2,5 UV-I 256 W/m 8,1 km/h
11.07.2008 16,0 C 88 % 1007,2 hPa 3,6 l/m 4,9 km/h S 1,67 h 1,4 UV-I 142 W/m 10,5 km/h
12.07.2008 14,6 C 79 % 1009,1 hPa 0,2 l/m 5,5 km/h S 4,25 h 2,5 UV-I 274 W/m 10,1 km/h
13.07.2008 15,0 C 70 % 1013,9 hPa 0,0 l/m 2,7 km/h NW 8,00 h 3,2 UV-I 407 W/m 6,8 km/h
14.07.2008 15,3 C 74 % 1022,4 hPa 0,0 l/m 3,9 km/h NW 4,17 h 2,7 UV-I 290 W/m 7,6 km/h
15.07.2008 18,7 C 67 % 1024,0 hPa 0,0 l/m 9,2 km/h S 8,50 h 4,0 UV-I 426 W/m 19,7 km/h
16.07.2008 14,0 C 87 % 1017,2 hPa 8,2 l/m 2,9 km/h S-SW 1,58 h 1,1 UV-I 113 W/m 8,4 km/h
17.07.2008 12,3 C 89 % 1013,7 hPa 3,8 l/m 8,7 km/h S 0,83 h 1,5 UV-I 156 W/m 16,1 km/h
18.07.2008 13,0 C 92 % 1011,6 hPa 1,2 l/m 4,7 km/h S 0,42 h 1,3 UV-I 134 W/m 9,7 km/h
19.07.2008 14,6 C 86 % 1008,0 hPa 11,8 l/m 7,7 km/h S 2,50 h 2,4 UV-I 202 W/m 13,3 km/h
20.07.2008 12,3 C 90 % 1012,4 hPa 3,4 l/m 6,4 km/h S 2,73 h 2,1 UV-I 218 W/m 17,3 km/h
21.07.2008 11,1 C 94 % 1014,5 hPa 12,4 l/m 11,0 km/h S 0,00 h 1,0 UV-I 92 W/m 13,7 km/h
22.07.2008 13,1 C 90 % 1022,3 hPa 0,4 l/m 3,2 km/h NW 0,67 h 1,5 UV-I 143 W/m 8,0 km/h
23.07.2008 14,9 C 82 % 1024,7 hPa 0,0 l/m 0,4 km/h N-NO 6,25 h 2,8 UV-I 341 W/m 1,6 km/h
24.07.2008 19,2 C 60 % 1019,8 hPa 0,0 l/m 2,4 km/h O 12,08 h 3,5 UV-I 470 W/m 8,0 km/h
25.07.2008 22,1 C 68 % 1013,8 hPa 0,0 l/m 4,3 km/h SO 6,75 h 2,7 UV-I 336 W/m 9,6 km/h
26.07.2008 22,5 C 72 % 1013,9 hPa 0,0 l/m 4,0 km/h SO 10,17 h 3,3 UV-I 406 W/m 8,4 km/h
27.07.2008 23,3 C 64 % 1016,4 hPa 0,0 l/m 2,1 km/h SO 11,33 h 3,3 UV-I 417 W/m 5,6 km/h
28.07.2008 24,0 C 50 % 1014,9 hPa 0,0 l/m 4,7 km/h SO 12,67 h 3,5 UV-I 467 W/m 10,4 km/h
29.07.2008 22,2 C 72 % 1015,3 hPa 3,4 l/m 6,9 km/h SO 6,58 h 3,1 UV-I 269 W/m 10,9 km/h
30.07.2008 21,7 C 78 % 1018,6 hPa 0,0 l/m 2,1 km/h N-NO 7,75 h 3,2 UV-I 373 W/m 6,4 km/h
31.07.2008 24,4 C 58 % 1014,8 hPa 0,0 l/m 7,0 km/h SO 10,42 h 3,1 UV-I 416 W/m 16,9 km/h
01.08.2008 22,2 C 68 % 1014,2 hPa 1,4 l/m 6,7 km/h S 6,83 h 3,1 UV-I 329 W/m 13,7 km/h
02.08.2008 18,5 C 71 % 1015,2 hPa 0,0 l/m 4,6 km/h S 4,92 h 2,7 UV-I 283 W/m 5,6 km/h
03.08.2008 18,1 C 85 % 1011,8 hPa 3,8 l/m 5,3 km/h S 3,42 h 2,9 UV-I 285 W/m 11,6 km/h
04.08.2008 17,0 C 73 % 1008,3 hPa 14,0 l/m 9,3 km/h S 3,87 h 2,6 UV-I 291 W/m 21,3 km/h
05.08.2008 16,4 C 80 % 1015,5 hPa 0,0 l/m 4,2 km/h S 3,42 h 2,8 UV-I 252 W/m 12,1 km/h
06.08.2008 21,3 C 72 % 1013,6 hPa 0,0 l/m 1,4 km/h S 6,42 h 3,4 UV-I 357 W/m 4,8 km/h
07.08.2008 22,2 C 65 % 1005,5 hPa 3,2 l/m 11,9 km/h S 9,08 h 3,2 UV-I 352 W/m 23,7 km/h
08.08.2008 16,4 C 86 % 1006,0 hPa 8,6 l/m 7,5 km/h S 4,75 h 2,6 UV-I 314 W/m 15,7 km/h
09.08.2008 13,6 C 81 % 1013,6 hPa 0,0 l/m 4,1 km/h NW 3,92 h 2,3 UV-I 249 W/m 10,1 km/h
10.08.2008 15,9 C 89 % 1007,3 hPa 4,4 l/m 7,8 km/h S 0,33 h 1,6 UV-I 132 W/m 13,7 km/h
11.08.2008 16,7 C 78 % 1005,0 hPa 0,2 l/m 3,3 km/h S 7,90 h 2,5 UV-I 333 W/m 5,2 km/h
12.08.2008 15,7 C 93 % 998,2 hPa 8,6 l/m 8,2 km/h S 0,58 h 1,3 UV-I 133 W/m 14,1 km/h
13.08.2008 15,1 C 77 % 1007,6 hPa 1,4 l/m 12,7 km/h S 5,50 h 2,1 UV-I 290 W/m 18,9 km/h
14.08.2008 14,6 C 75 % 1014,4 hPa 0,0 l/m 4,0 km/h S 8,25 h 2,6 UV-I 365 W/m 5,6 km/h
15.08.2008 13,3 C 82 % 1014,2 hPa 0,0 l/m 2,1 km/h N 2,42 h 1,4 UV-I 178 W/m 4,8 km/h
16.08.2008 13,6 C 76 % 1012,9 hPa 0,0 l/m 1,4 km/h N-NO 10,42 h 2,7 UV-I 411 W/m 2,4 km/h
17.08.2008 16,0 C 69 % 1010,3 hPa 0,0 l/m 4,2 km/h S 6,33 h 2,3 UV-I 293 W/m 8,0 km/h
18.08.2008 16,9 C 83 % 1010,1 hPa 1,0 l/m 3,9 km/h S 2,92 h 2,6 UV-I 231 W/m 7,2 km/h
19.08.2008 16,1 C 79 % 1008,2 hPa 7,0 l/m 4,4 km/h S 4,57 h 2,5 UV-I 271 W/m 8,0 km/h
20.08.2008 15,9 C 79 % 1012,8 hPa 3,4 l/m 8,1 km/h S 1,58 h 1,7 UV-I 161 W/m 15,3 km/h
21.08.2008 16,6 C 73 % 1016,5 hPa 0,0 l/m 6,3 km/h S 3,17 h 2,2 UV-I 225 W/m 16,1 km/h
22.08.2008 14,4 C 93 % 1011,0 hPa 12,8 l/m 2,8 km/h S 0,08 h 1,2 UV-I 99 W/m 7,3 km/h
23.08.2008 12,0 C 94 % 1010,1 hPa 26,0 l/m 8,5 km/h NW 1,58 h 1,7 UV-I 171 W/m 18,9 km/h
24.08.2008 13,7 C 88 % 1013,6 hPa 0,2 l/m 3,4 km/h W-NW 4,00 h 2,6 UV-I 285 W/m 6,9 km/h
25.08.2008 15,2 C 90 % 1016,8 hPa 3,8 l/m 3,0 km/h S 1,65 h 1,6 UV-I 155 W/m 4,8 km/h
26.08.2008 16,1 C 86 % 1022,2 hPa 0,0 l/m 2,2 km/h S 0,00 h 1,5 UV-I 128 W/m 4,4 km/h
27.08.2008 16,3 C 84 % 1020,8 hPa 0,0 l/m 6,0 km/h S 2,83 h 2,2 UV-I 230 W/m 13,3 km/h
28.08.2008 15,5 C 94 % 1019,0 hPa 1,4 l/m 5,4 km/h NW 0,08 h 1,3 UV-I 97 W/m 13,3 km/h
29.08.2008 16,4 C 90 % 1018,9 hPa 0,4 l/m 3,8 km/h NW 2,17 h 1,9 UV-I 166 W/m 10,8 km/h
30.08.2008 14,9 C 84 % 1019,7 hPa 0,0 l/m 1,9 km/h SO 10,83 h 3,4 UV-I 419 W/m 4,8 km/h
31.08.2008 18,6 C 69 % 1014,0 hPa 0,0 l/m 4,8 km/h SO 10,33 h 3,1 UV-I 392 W/m 8,0 km/h
01.09.2008 16,4 C 77 % 1014,9 hPa 0,2 l/m 5,4 km/h S 6,50 h 2,8 UV-I 316 W/m 16,9 km/h
02.09.2008 16,3 C 77 % 1008,6 hPa 0,0 l/m 12,5 km/h S 2,75 h 1,9 UV-I 215 W/m 19,7 km/h
03.09.2008 11,3 C 87 % 1006,0 hPa 10,4 l/m 6,2 km/h S 3,75 h 1,6 UV-I 187 W/m 10,9 km/h
04.09.2008 10,7 C 85 % 1007,0 hPa 0,2 l/m 6,6 km/h S 7,83 h 2,0 UV-I 307 W/m 12,1 km/h
05.09.2008 15,4 C 87 % 1005,2 hPa 3,4 l/m 16,8 km/h S 4,83 h 2,3 UV-I 253 W/m 27,8 km/h
06.09.2008 16,5 C 80 % 1005,3 hPa 6,0 l/m 13,8 km/h S 1,25 h 1,9 UV-I 173 W/m 18,5 km/h
07.09.2008 14,6 C 82 % 1009,6 hPa 0,0 l/m 15,2 km/h S 4,00 h 1,9 UV-I 255 W/m 22,5 km/h
08.09.2008 12,4 C 84 % 1015,9 hPa 0,0 l/m 6,2 km/h S 0,75 h 1,1 UV-I 114 W/m 10,8 km/h
09.09.2008 13,7 C 81 % 1016,3 hPa 0,0 l/m 3,2 km/h S 9,75 h 2,7 UV-I 377 W/m 5,6 km/h
10.09.2008 15,8 C 89 % 1015,3 hPa 0,0 l/m 1,7 km/h S 2,10 h 1,5 UV-I 180 W/m 4,8 km/h
11.09.2008 17,6 C 80 % 1012,3 hPa 0,0 l/m 3,3 km/h SO 6,33 h 2,5 UV-I 298 W/m 8,8 km/h
12.09.2008 16,3 C 82 % 1012,0 hPa 0,0 l/m 4,0 km/h SO 3,92 h 2,2 UV-I 252 W/m 11,3 km/h
13.09.2008 11,6 C 65 % 1019,2 hPa 0,0 l/m 8,9 km/h NO 8,32 h 2,2 UV-I 354 W/m 22,5 km/h
14.09.2008 9,1 C 83 % 1024,4 hPa 0,2 l/m 3,8 km/h N-NO 4,43 h 1,8 UV-I 254 W/m 11,6 km/h
15.09.2008 8,5 C 88 % 1024,7 hPa 0,0 l/m 4,5 km/h N-NO 0,50 h 1,2 UV-I 132 W/m 8,9 km/h
16.09.2008 9,3 C 85 % 1023,7 hPa 0,0 l/m 2,8 km/h N-NO 2,33 h 1,9 UV-I 212 W/m 6,0 km/h
17.09.2008 7,2 C 89 % 1024,0 hPa 0,0 l/m 0,6 km/h O 2,42 h 1,4 UV-I 169 W/m 1,6 km/h
18.09.2008 6,8 C 77 % 1025,1 hPa 0,0 l/m 2,1 km/h SO 8,58 h 2,1 UV-I 335 W/m 4,4 km/h
19.09.2008 8,2 C 82 % 1027,5 hPa 0,0 l/m 0,8 km/h SO 5,75 h 2,1 UV-I 259 W/m 2,0 km/h
20.09.2008 9,3 C 82 % 1030,9 hPa 0,0 l/m 2,3 km/h N-NO 7,00 h 2,2 UV-I 310 W/m 5,6 km/h
21.09.2008 10,1 C 87 % 1024,2 hPa 1,0 l/m 4,8 km/h N-NW 3,42 h 1,5 UV-I 200 W/m 9,2 km/h
22.09.2008 10,3 C 89 % 1020,2 hPa 0,4 l/m 3,2 km/h N 1,50 h 1,4 UV-I 161 W/m 7,2 km/h
23.09.2008 9,9 C 96 % 1017,3 hPa 10,4 l/m 7,1 km/h N-NW 0,00 h 0,5 UV-I 45 W/m 20,1 km/h
24.09.2008 8,9 C 96 % 1024,6 hPa 0,0 l/m 3,2 km/h NO 0,92 h 0,8 UV-I 99 W/m 8,0 km/h
25.09.2008 9,1 C 88 % 1031,9 hPa 0,2 l/m 4,3 km/h N-NO 4,02 h 1,6 UV-I 225 W/m 11,3 km/h
26.09.2008 8,8 C 90 % 1035,6 hPa 0,0 l/m 1,6 km/h N-NO 8,42 h 2,1 UV-I 309 W/m 4,8 km/h
27.09.2008 7,6 C 85 % 1030,8 hPa 0,2 l/m 2,0 km/h S 8,83 h 2,2 UV-I 317 W/m 3,6 km/h
28.09.2008 9,1 C 84 % 1023,2 hPa 0,0 l/m 3,8 km/h S-SO 8,67 h 1,9 UV-I 297 W/m 9,2 km/h
29.09.2008 9,7 C 92 % 1014,8 hPa 2,8 l/m 3,4 km/h S 0,08 h 0,7 UV-I 82 W/m 9,2 km/h
30.09.2008 9,5 C 92 % 1003,1 hPa 10,4 l/m 15,8 km/h S 0,00 h 0,7 UV-I 60 W/m 22,9 km/h
01.10.2008 9,3 C 92 % 996,7 hPa 10,4 l/m 9,4 km/h S-SW 0,25 h 0,8 UV-I 83 W/m 18,5 km/h
02.10.2008 8,4 C 82 % 1001,7 hPa 0,0 l/m 11,5 km/h S-SW 3,25 h 1,3 UV-I 208 W/m 24,5 km/h
03.10.2008 6,0 C 84 % 1007,2 hPa 0,4 l/m 5,5 km/h S 4,50 h 1,3 UV-I 225 W/m 9,7 km/h
04.10.2008 5,2 C 85 % 1014,2 hPa 1,8 l/m 5,4 km/h S 1,42 h 1,0 UV-I 150 W/m 12,4 km/h
05.10.2008 8,8 C 92 % 1005,3 hPa 7,4 l/m 9,5 km/h S 0,00 h 0,5 UV-I 38 W/m 16,9 km/h
06.10.2008 10,9 C 96 % 1013,8 hPa 3,0 l/m 1,5 km/h S 0,00 h 0,9 UV-I 77 W/m 4,4 km/h
07.10.2008 13,0 C 91 % 1014,8 hPa 0,2 l/m 5,9 km/h S-SO 2,92 h 1,3 UV-I 182 W/m 10,9 km/h
08.10.2008 13,0 C 92 % 1017,7 hPa 0,4 l/m 7,6 km/h S 1,58 h 1,2 UV-I 163 W/m 15,7 km/h
09.10.2008 9,0 C 92 % 1031,3 hPa 0,4 l/m 1,9 km/h NW 3,08 h 1,3 UV-I 195 W/m 3,6 km/h
10.10.2008 8,9 C 89 % 1032,6 hPa 0,0 l/m 2,1 km/h S 6,75 h 1,5 UV-I 241 W/m 4,8 km/h
11.10.2008 12,1 C 89 % 1028,8 hPa 0,4 l/m 8,2 km/h S 6,42 h 1,5 UV-I 243 W/m 9,6 km/h
12.10.2008 10,5 C 91 % 1025,9 hPa 0,0 l/m 1,2 km/h S 6,33 h 1,4 UV-I 239 W/m 2,0 km/h
13.10.2008 13,6 C 89 % 1018,9 hPa 0,4 l/m 3,9 km/h S 5,83 h 1,3 UV-I 216 W/m 6,8 km/h
14.10.2008 11,4 C 87 % 1019,5 hPa 0,6 l/m 4,8 km/h W-NW 2,25 h 0,9 UV-I 131 W/m 12,1 km/h
15.10.2008 12,5 C 88 % 1013,1 hPa 1,0 l/m 10,4 km/h S 0,75 h 0,9 UV-I 108 W/m 18,5 km/h
16.10.2008 7,9 C 93 % 1009,9 hPa 9,0 l/m 10,0 km/h S-SW 0,17 h 0,8 UV-I 62 W/m 22,9 km/h
17.10.2008 6,1 C 91 % 1018,6 hPa 0,0 l/m 5,2 km/h W 1,17 h 0,8 UV-I 108 W/m 13,7 km/h
18.10.2008 6,3 C 87 % 1019,7 hPa 0,2 l/m 2,9 km/h S 3,17 h 1,1 UV-I 157 W/m 7,2 km/h
19.10.2008 8,8 C 87 % 1021,0 hPa 0,0 l/m 9,4 km/h S 1,25 h 1,1 UV-I 142 W/m 16,5 km/h
20.10.2008 10,2 C 84 % 1013,7 hPa 0,0 l/m 11,1 km/h S 6,08 h 1,3 UV-I 225 W/m 18,1 km/h
21.10.2008 9,4 C 94 % 1011,2 hPa 2,0 l/m 7,8 km/h S 0,00 h 0,6 UV-I 40 W/m 16,5 km/h
22.10.2008 7,1 C 88 % 1023,3 hPa 0,0 l/m 4,5 km/h S-SW 0,58 h 0,8 UV-I 119 W/m 10,9 km/h
23.10.2008 4,9 C 88 % 1027,5 hPa 0,2 l/m 9,4 km/h S 6,50 h 1,2 UV-I 213 W/m 15,3 km/h
24.10.2008 7,7 C 84 % 1025,4 hPa 0,0 l/m 5,9 km/h S 2,17 h 1,0 UV-I 160 W/m 8,4 km/h
25.10.2008 9,4 C 92 % 1030,0 hPa 0,4 l/m 4,5 km/h S 1,83 h 0,8 UV-I 108 W/m 7,6 km/h
26.10.2008 10,5 C 88 % 1015,9 hPa 1,6 l/m 11,1 km/h S 1,33 h 1,0 UV-I 112 W/m 17,7 km/h
27.10.2008 6,8 C 91 % 1006,9 hPa 11,8 l/m 4,4 km/h S 0,67 h 0,7 UV-I 70 W/m 10,5 km/h
28.10.2008 2,3 C 91 % 1009,7 hPa 0,2 l/m 3,0 km/h S 0,42 h 0,9 UV-I 97 W/m 4,8 km/h
29.10.2008 2,7 C 91 % 1006,9 hPa 0,0 l/m 1,0 km/h N-NW 4,00 h 0,9 UV-I 150 W/m 3,6 km/h
30.10.2008 2,2 C 96 % 999,7 hPa 5,0 l/m 2,6 km/h N-NO 0,00 h 0,5 UV-I 38 W/m 5,6 km/h
31.10.2008 3,2 C 95 % 1008,4 hPa 0,0 l/m 2,4 km/h SO 0,33 h 0,6 UV-I 57 W/m 6,4 km/h
01.11.2008 5,5 C 95 % 1009,7 hPa 0,6 l/m 6,1 km/h N-NO 0,08 h 0,7 UV-I 84 W/m 15,3 km/h
02.11.2008 7,3 C 91 % 1017,0 hPa 0,0 l/m 1,6 km/h S-SO 3,90 h 0,8 UV-I 153 W/m 5,2 km/h
03.11.2008 8,3 C 95 % 1015,2 hPa 0,0 l/m 1,9 km/h S-SO 0,08 h 0,6 UV-I 48 W/m 6,8 km/h
04.11.2008 7,1 C 96 % 1019,4 hPa 0,0 l/m 3,3 km/h S 3,75 h 0,8 UV-I 152 W/m 4,4 km/h
05.11.2008 8,6 C 96 % 1014,8 hPa 0,4 l/m 3,6 km/h NO 0,00 h 0,5 UV-I 36 W/m 9,6 km/h
06.11.2008 9,3 C 92 % 1015,7 hPa 0,0 l/m 1,4 km/h O-SO 0,00 h 0,6 UV-I 78 W/m 3,6 km/h
07.11.2008 7,9 C 93 % 1015,2 hPa 0,0 l/m 4,9 km/h S 0,67 h 0,5 UV-I 73 W/m 8,1 km/h
08.11.2008 7,1 C 92 % 1019,6 hPa 0,2 l/m 6,5 km/h S 1,42 h 0,7 UV-I 91 W/m 10,4 km/h
09.11.2008 6,2 C 91 % 1017,0 hPa 2,6 l/m 12,2 km/h S 0,25 h 0,5 UV-I 66 W/m 18,9 km/h
10.11.2008 12,3 C 82 % 1012,3 hPa 2,8 l/m 21,8 km/h S 0,17 h 0,6 UV-I 64 W/m 37,4 km/h
11.11.2008 9,1 C 82 % 1009,8 hPa 4,6 l/m 16,0 km/h S 1,83 h 0,7 UV-I 92 W/m 25,4 km/h
12.11.2008 6,7 C 85 % 1017,3 hPa 0,0 l/m 5,8 km/h S 3,17 h 0,7 UV-I 123 W/m 14,5 km/h
13.11.2008 4,7 C 92 % 1025,0 hPa 0,0 l/m 3,3 km/h S 0,50 h 0,6 UV-I 68 W/m 7,2 km/h
14.11.2008 6,5 C 95 % 1025,4 hPa 1,6 l/m 5,9 km/h S 0,00 h 0,5 UV-I 45 W/m 12,5 km/h
15.11.2008 8,5 C 97 % 1024,9 hPa 2,6 l/m 12,5 km/h S-SW 0,00 h 0,0 UV-I 26 W/m 28,5 km/h
16.11.2008 5,9 C 93 % 1025,8 hPa 2,6 l/m 7,6 km/h NW 0,00 h 0,6 UV-I 48 W/m 10,1 km/h
17.11.2008 3,2 C 95 % 1027,9 hPa 0,2 l/m 1,6 km/h S 0,75 h 0,6 UV-I 85 W/m 4,0 km/h
18.11.2008 5,1 C 96 % 1012,8 hPa 5,8 l/m 9,8 km/h S 0,08 h 0,5 UV-I 44 W/m 22,9 km/h
19.11.2008 6,3 C 94 % 1014,4 hPa 0,2 l/m 13,4 km/h W 0,00 h 0,5 UV-I 41 W/m 31,0 km/h
20.11.2008 5,5 C 94 % 1006,8 hPa 16,4 l/m 11,4 km/h W 0,00 h 0,0 UV-I 27 W/m 23,7 km/h
21.11.2008 0,9 C 95 % 999,5 hPa 9,2 l/m 9,5 km/h N-NW 0,00 h 0,0 UV-I 37 W/m 20,5 km/h
22.11.2008 -0,9 C 97 % 1003,9 hPa 0,0 l/m 8,3 km/h N-NW 0,08 h 0,0 UV-I 40 W/m 22,1 km/h
23.11.2008 -1,0 C 94 % 996,1 hPa 0,0 l/m 15,3 km/h S-SO 0,08 h 0,5 UV-I 49 W/m 24,1 km/h
24.11.2008 -2,0 C 96 % 996,8 hPa 0,0 l/m 2,5 km/h S-SO 0,00 h 0,0 UV-I 16 W/m 8,0 km/h
25.11.2008 -0,3 C 98 % 1014,9 hPa 0,2 l/m 2,7 km/h W 0,00 h 0,0 UV-I 18 W/m 6,8 km/h
26.11.2008 2,4 C 96 % 1023,9 hPa 12,8 l/m 5,7 km/h SW 0,00 h 0,5 UV-I 57 W/m 13,7 km/h
27.11.2008 2,7 C 97 % 1016,7 hPa 4,0 l/m 8,1 km/h S 0,17 h 0,5 UV-I 50 W/m 14,5 km/h
28.11.2008 0,1 C 90 % 1002,7 hPa 0,0 l/m 5,1 km/h S-SO 2,25 h 0,6 UV-I 102 W/m 6,0 km/h
29.11.2008 0,1 C 95 % 996,7 hPa 1,2 l/m 4,0 km/h S 0,00 h 0,5 UV-I 48 W/m 6,8 km/h
30.11.2008 1,1 C 92 % 997,1 hPa 1,4 l/m 10,7 km/h S-SO 1,92 h 0,5 UV-I 85 W/m 16,9 km/h
01.12.2008 0,9 C 93 % 998,8 hPa 0,0 l/m 5,3 km/h S-SO 0,00 h 0,0 UV-I 72 W/m 15,3 km/h
02.12.2008 1,7 C 95 % 1004,5 hPa 5,0 l/m 8,5 km/h S-SW 0,00 h 0,0 UV-I 14 W/m 16,1 km/h
03.12.2008 -0,2 C 95 % 998,8 hPa 0,2 l/m 5,0 km/h S-SO 0,00 h 0,0 UV-I 8 W/m 10,1 km/h
04.12.2008 1,0 C 95 % 991,3 hPa 0,6 l/m 10,7 km/h S 0,00 h 0,0 UV-I 13 W/m 17,3 km/h
05.12.2008 3,4 C 94 % 991,5 hPa 0,4 l/m 8,4 km/h S-SO 0,32 h 0,5 UV-I 66 W/m 13,3 km/h
06.12.2008 3,4 C 98 % 1008,2 hPa 6,2 l/m 4,6 km/h W-NW 0,00 h 0,0 UV-I 14 W/m 11,7 km/h
07.12.2008 3,5 C 95 % 1025,3 hPa 0,0 l/m 5,0 km/h NW 0,32 h 0,0 UV-I 52 W/m 16,1 km/h
08.12.2008 0,8 C 93 % 1023,2 hPa 0,2 l/m 5,2 km/h S 0,92 h 0,5 UV-I 75 W/m 12,1 km/h
09.12.2008 -0,9 C 95 % 1012,9 hPa 0,0 l/m 6,8 km/h S 0,00 h 0,0 UV-I 23 W/m 14,5 km/h
10.12.2008 0,2 C 98 % 1012,9 hPa 1,8 l/m 1,7 km/h S-SW 0,00 h 0,0 UV-I 21 W/m 3,2 km/h
11.12.2008 -0,3 C 97 % 1013,0 hPa 0,2 l/m 0,1 km/h S-SO 0,00 h 0,0 UV-I 52 W/m 0,4 km/h
12.12.2008 -0,6 C 92 % 1018,6 hPa 0,0 l/m 7,6 km/h S-SO 0,00 h 0,0 UV-I 47 W/m 15,6 km/h
13.12.2008 -0,7 C 92 % 1005,5 hPa 0,0 l/m 13,7 km/h SO 0,00 h 0,0 UV-I 24 W/m 27,0 km/h
14.12.2008 2,0 C 91 % 1006,3 hPa 0,2 l/m 5,3 km/h S-SO 1,92 h 0,6 UV-I 86 W/m 12,1 km/h
15.12.2008 1,9 C 95 % 1015,8 hPa 0,0 l/m 3,2 km/h N-NO 0,00 h 0,0 UV-I 40 W/m 7,7 km/h
16.12.2008 1,1 C 95 % 1014,7 hPa 0,0 l/m 2,5 km/h SO 0,00 h 0,0 UV-I 20 W/m 6,4 km/h
17.12.2008 -0,3 C 98 % 1013,5 hPa 1,0 l/m 2,7 km/h S 0,00 h 0,0 UV-I 36 W/m 5,6 km/h
18.12.2008 2,1 C 97 % 1019,0 hPa 1,4 l/m 4,7 km/h S 3,00 h 0,5 UV-I 73 W/m 9,3 km/h
19.12.2008 3,4 C 95 % 1021,3 hPa 6,0 l/m 8,4 km/h S 2,00 h 0,0 UV-I 82 W/m 26,5 km/h
20.12.2008 5,0 C 93 % 1020,6 hPa 8,0 l/m 12,7 km/h NW 0,00 h 0,0 UV-I 51 W/m 29,0 km/h
21.12.2008 6,1 C 96 % 1028,4 hPa 3,0 l/m 8,3 km/h W 0,00 h 0,0 UV-I 16 W/m 13,3 km/h
22.12.2008 5,9 C 93 % 1029,7 hPa 3,6 l/m 14,5 km/h NW 2,00 h 0,5 UV-I 78 W/m 26,5 km/h
23.12.2008 3,6 C 99 % 1034,9 hPa 2,2 l/m 4,3 km/h NW 0,00 h 0,0 UV-I 33 W/m 11,7 km/h
24.12.2008 3,9 C 99 % 1029,3 hPa 1,4 l/m 6,0 km/h N-NW 0,00 h 0,0 UV-I 13 W/m 14,9 km/h
25.12.2008 0,7 C 90 % 1036,1 hPa 0,2 l/m 4,3 km/h NO 1,25 h 0,5 UV-I 71 W/m 14,1 km/h
26.12.2008 -3,2 C 83 % 1040,7 hPa 0,0 l/m 4,4 km/h O 3,00 h 0,6 UV-I 92 W/m 11,3 km/h
27.12.2008 -3,3 C 87 % 1037,7 hPa 0,0 l/m 4,6 km/h O-SO 2,25 h 0,6 UV-I 90 W/m 14,0 km/h
28.12.2008 -4,1 C 88 % 1033,2 hPa 0,0 l/m 5,9 km/h O 1,58 h 0,6 UV-I 75 W/m 16,5 km/h
29.12.2008 -5,0 C 86 % 1033,6 hPa 0,0 l/m 11,6 km/h O-SO 3,17 h 0,6 UV-I 94 W/m 26,1 km/h
30.12.2008 -5,5 C 88 % 1031,9 hPa 0,0 l/m 4,0 km/h S-SO 3,08 h 0,6 UV-I 96 W/m 7,6 km/h
31.12.2008 -5,8 C 86 % 1026,1 hPa 0,0 l/m 1,8 km/h S 2,75 h 0,5 UV-I 91 W/m 4,0 km/h
Min-Datum 16.02.08 17.02.08 21.03.08 177 Tage 08.02.08 - - - - 08.02.08
Min-Zeit 07:25 14:30 13:15 - 14:25 - - - - 14:25
Minimum -9,0 C 30 % 974,0 hPa - 0,0 km/h - - - - 0,0 km/h
Max-Datum 02.07.08 13.06.08 16.02.08 23.08.08 10.03.08 - 24.06.08 30.06.08 15.06.08 01.10.08
Max-Zeit 15:04 07:05 10:10 16:05 11:20 - 20:10 13:10 13:35 14:15
Maximum 30,6 C 100 % 1042,0 hPa 26,0 l/m 72,2 km/h
N
- 12,92 h 8,6 UV-I 1229 W/m 62,8 km/h
S-SW
Durchschnitt 9,5 C 80 % 1014,4 hPa #734,5 l/m 4,6 km/h N #1029:14 h 2,0 UV-I 219 W/m 8,0 km/h

Durchschnitt Minimum Temp.5,4 C
Durchschnitt Maximum Temp.13,9 C